MST,Max TemperatureF,Mean TemperatureF,Min TemperatureF,Max Dew PointF,MeanDew PointF,Min DewpointF,Max Humidity, Mean Humidity, Min Humidity, Max Sea Level PressureIn, Mean Sea Level PressureIn, Min Sea Level PressureIn, Max VisibilityMiles, Mean VisibilityMiles, Min VisibilityMiles, Max Wind SpeedMPH, Mean Wind SpeedMPH, Max Gust SpeedMPH,PrecipitationIn, CloudCover, Events, WindDirDegrees
2012-11-1,86,70,53,32,25,21,35,25,10,30.00,29.94,29.88,20,12,10,9,6,,0.00,1,,112
2012-11-2,84,70,57,32,28,23,36,27,12,29.98,29.92,29.88,20,11,7,9,5,,0.00,1,,111
2012-11-3,84,68,53,36,32,28,44,31,14,30.06,30.01,29.95,20,11,10,8,5,,0.00,1,,112
2012-11-4,86,70,53,37,31,27,44,30,12,30.13,30.07,30.03,20,12,10,9,4,,0.00,0,,103
2012-11-5,87,69,51,32,27,19,47,27,9,30.14,30.07,30.01,20,12,10,7,4,,0.00,0,,133
2012-11-6,87,71,55,32,27,21,34,25,12,30.13,30.05,30.00,20,12,10,12,6,,0.00,0,,116
2012-11-7,86,70,53,32,28,25,36,27,12,30.06,29.98,29.90,20,12,10,9,6,,0.00,0,,116
2012-11-8,84,70,57,43,33,25,45,29,12,29.96,29.90,29.87,20,12,10,12,6,,0.00,2,,110
2012-11-9,78,68,57,55,48,39,82,54,32,29.95,29.83,29.74,20,11,7,20,9,30,0.05,2,Rain-Thunderstorm,175
2012-11-10,60,52,44,50,38,25,88,60,25,30.11,29.96,29.85,20,10,5,20,8,30,0.12,2,Rain,217
2012-11-11,60,48,37,36,29,16,87,53,17,30.33,30.23,30.10,20,12,10,10,4,,0.00,0,,77
2012-11-12,71,50,30,52,25,10,61,39,10,30.39,30.21,30.12,20,11,7,9,5,,0.00,0,,60
2012-11-13,73,57,41,34,28,14,66,45,10,30.18,30.13,30.05,20,11,7,6,3,,0.00,0,,131
2012-11-14,80,61,42,32,28,16,61,39,9,30.13,30.07,30.01,20,12,10,8,3,,0.00,1,,115
2012-11-15,73,60,46,37,29,23,50,34,20,30.14,30.08,30.05,20,12,10,10,6,,0.00,2,,128
2012-11-16,78,63,48,39,34,23,66,41,14,30.14,30.08,30.04,20,12,10,8,5,,0.00,1,,113
2012-11-17,73,60,48,37,34,30,54,43,22,30.12,30.07,30.03,20,12,10,10,6,,0.00,2,,136
2012-11-18,78,66,53,43,39,36,58,45,28,30.13,30.09,30.05,20,12,10,7,5,,0.00,1,,91
2012-11-19,78,64,50,45,40,36,72,51,23,30.23,30.16,30.14,20,12,10,8,3,,0.00,0,,81
2012-11-20,80,66,51,39,36,32,62,40,17,30.17,30.07,30.01,20,10,1,8,3,,0.00,1,,116
2012-11-21,78,66,53,55,36,32,94,42,20,30.07,30.02,29.98,20,11,2,8,3,,0.00,1,,117
2012-11-22,78,63,46,37,35,30,62,45,18,30.14,30.08,30.03,20,12,10,8,5,,0.00,0,,110
2012-11-23,84,64,44,36,31,25,61,38,11,30.21,30.14,30.10,20,12,10,9,5,,0.00,0,,109
2012-11-24,84,68,53,34,29,25,47,29,12,30.15,30.06,29.97,20,12,10,7,4,,0.00,0,,105
2012-11-25,78,64,51,36,32,30,50,38,17,29.98,29.93,29.86,20,12,10,8,5,,0.00,0,,120
2012-11-26,78,62,46,36,32,30,58,40,18,30.12,30.03,29.94,20,12,10,10,6,,0.00,1,,114
2012-11-27,80,63,46,34,31,25,58,36,13,30.21,30.12,30.06,20,12,10,9,5,16,0.00,1,,104
2012-11-28,78,64,51,34,30,27,47,33,16,30.17,30.12,30.07,20,12,10,9,6,,0.00,1,,110
2012-11-29,75,62,48,36,32,30,54,41,21,30.21,30.15,30.11,20,12,10,7,6,,0.00,0,,113
2012-11-30,73,60,48,41,37,34,67,47,29,30.88,30.14,30.07,20,12,10,8,5,,0.00,1,,121